Find TDRS 1

NORAD ID: 13969 Int'l Des: 1983-026 Owner: GSFC Country: US operational
HEOCIRCULAR

リアルタイム位置

3D地球を読み込み中...

TDRS 1について

説明を読み込み中...

次回通過

Passes for default location (London). Set your location on the main map for personalized predictions.

高度履歴

Loading altitude history...

軌道要素

1 13969U 83026B 26105.89801999 -.00000263 00000-0 00000-0 0 9996
2 13969 8.7758 320.6879 0019103 271.2751 76.2664 0.98745689129749
Epoch: Apr 15, 2026 • Age: 7 hours

現在のステータス

高度 36300.3 km
速度 3.05 km/s
衛星直下点 8.77°N, 139.34°E
打ち上げ日 Apr 4, 1983
運用期間 43 years
タイプ other

技術仕様

分類 Payload
質量 2263.00 kg
乾燥質量 1673.00 kg
総質量 2263.00 kg
長さ 1.30 m
直径 2.40 m
スパン 17.40 m
形状 Box + Dish + 2 Pan
製造者 TRW
バスタイプ TDRS
フェーズステータス In Orbit
所有者/国 GSFC/US

Most Searched